Address 0x8d4d2557ce99f83f658adf61eef3e61e04c2ac2c

 
Txn Hash Method
Block
From
To
Value [Txn Fee]
0xb8b49daad1eb615c701c4c16491572b85bae7b2155702517d879b2ce07913c8eTransfer107413842021-09-08 17:37:5619 days 20 mins ago0x8d4d2557ce99f83f658adf61eef3e61e04c2ac2cOUT Superalgos: SA Token0 BNB0.00027102
0x5934b0478042da4dffda01c0e79c149c0956b801009d9d71a249d82bff1a46b5Transfer107413352021-09-08 17:35:2919 days 22 mins ago0x8d4d2557ce99f83f658adf61eef3e61e04c2ac2cOUT Superalgos: SA Token0 BNB0.00027108
0x2533c8e7b53063ebbfcd3fda9c93b6b6cd80d8338416b1f673740d68c5d97f5aTransfer107411552021-09-08 17:26:2919 days 31 mins ago0x8d4d2557ce99f83f658adf61eef3e61e04c2ac2cOUT Superalgos: SA Token0 BNB0.00027108
0xcfd9fc6acea7c4807a83eb1e2cf2040d79c2fa7152d9e5d32f277b4fecd949b3Transfer107410882021-09-08 17:23:0819 days 35 mins ago0x8d4d2557ce99f83f658adf61eef3e61e04c2ac2cOUT Superalgos: SA Token0 BNB0.00027102
0x6e4bd3c0131181d6140b5d863c557e9d9688dadc13b816e6cabe022a3e58639aTransfer107410032021-09-08 17:18:5319 days 39 mins ago0x8d4d2557ce99f83f658adf61eef3e61e04c2ac2cOUT Superalgos: SA Token0 BNB0.00027096
0x7357989b45731a7bd88068ebd1eec377c4868028cafaa44186c1569b348de148Transfer107409612021-09-08 17:16:4719 days 41 mins ago0x8d4d2557ce99f83f658adf61eef3e61e04c2ac2cOUT Superalgos: SA Token0 BNB0.00027108
0xd140c16056a2d0673acd1faa53a4b2d1f34e44834479b1ca7b7dff08a773e9a3Transfer107408912021-09-08 17:13:1719 days 44 mins ago0x8d4d2557ce99f83f658adf61eef3e61e04c2ac2cOUT Superalgos: SA Token0 BNB0.00027108
0x46ca47ea96d8492fd48ba5a1b55563232913b02d886fe6a6ee4b3f726210fdffTransfer99961532021-08-13 14:53:5245 days 3 hrs ago0x8d4d2557ce99f83f658adf61eef3e61e04c2ac2cOUT Superalgos: SA Token0 BNB0.00027102
0xbd1b209b246dab27ae5c52b6b4531c0102fac9ae857458835256722c3f4bf613Transfer99961142021-08-13 14:51:5545 days 3 hrs ago0x8d4d2557ce99f83f658adf61eef3e61e04c2ac2cOUT Superalgos: SA Token0 BNB0.00019608
0x8ea7ef619830c6ef500d73b2984df759fad903dd9ef4dc2b00afa817c708dcc1Transfer99961012021-08-13 14:51:1645 days 3 hrs ago0x8d4d2557ce99f83f658adf61eef3e61e04c2ac2cOUT Superalgos: SA Token0 BNB0.00019608
0x938d74b9c775c0d1b80d1e21ee85842ae6d822c46ee887f4ddd6a7b51f6d421bTransfer99960922021-08-13 14:50:4745 days 3 hrs ago0x8d4d2557ce99f83f658adf61eef3e61e04c2ac2cOUT Superalgos: SA Token0 BNB0.00019608
0x74c12fbb2e3adf43ade3c3e1c552d4fae03cde7f4b2d86c9559ddca7dd80657aTransfer99960832021-08-13 14:50:1945 days 3 hrs ago0x8d4d2557ce99f83f658adf61eef3e61e04c2ac2cOUT Superalgos: SA Token0 BNB0.00019608
0x61ceac3753b81e9aec9dc17c805df92d773d25016745c5eea9092185034e0c48Transfer99960732021-08-13 14:49:4245 days 3 hrs ago0x8d4d2557ce99f83f658adf61eef3e61e04c2ac2cOUT Superalgos: SA Token0 BNB0.00019608
0xb276fcdbe72e3fa00628ed5d4246077d6430ed5f8c79adb48eb3eb1d4253f830Transfer99960592021-08-13 14:49:0045 days 3 hrs ago0x8d4d2557ce99f83f658adf61eef3e61e04c2ac2cOUT Superalgos: SA Token0 BNB0.00027114
0xc8f6bf773f8bf4697db100656b648da2ac9e7486ec9eb80f38f0b41f93f63293Transfer97176432021-08-03 16:21:0455 days 1 hr ago0x8d4d2557ce99f83f658adf61eef3e61e04c2ac2cOUT Superalgos: SA Token0 BNB0.00027108
0x085b0b58da8136d4441cdc3afe4fae9419b8fd7fbfe52ce29f7a00e6d263a8afTransfer97173662021-08-03 16:07:1355 days 1 hr ago0x8d4d2557ce99f83f658adf61eef3e61e04c2ac2cOUT Superalgos: SA Token0 BNB0.00019602
0xff3f59424d463c0746a57cf8ff352a700cc41b2338d3e9aa3e23b42c3c580907Transfer97172032021-08-03 15:58:5855 days 1 hr ago0x8d4d2557ce99f83f658adf61eef3e61e04c2ac2cOUT Superalgos: SA Token0 BNB0.00027102
0x00e6d07ad4241dd7e71040fdd2950729c7e50112ac7edb767d04ad43d25c897cTransfer97171612021-08-03 15:56:5255 days 2 hrs ago0x8d4d2557ce99f83f658adf61eef3e61e04c2ac2cOUT Superalgos: SA Token0 BNB0.00027108
0x4dbc94f5601623133887caafa3a76e152f676f589d40971247c2d9cfdfd54470Transfer97171002021-08-03 15:53:3655 days 2 hrs ago0x8d4d2557ce99f83f658adf61eef3e61e04c2ac2cOUT Superalgos: SA Token0 BNB0.00027102
0xc636760b1dce2dd8ebbdcb9395cb0f96c66b27e81994957727a9337439085e62Transfer97168862021-08-03 15:42:0355 days 2 hrs ago0x8d4d2557ce99f83f658adf61eef3e61e04c2ac2cOUT Superalgos: SA Token0 BNB0.00019614
0x6450a707d41f9847a3e86e083039947a1fc5e017dc099822d07fd12d05a18951Transfer83207502021-06-15 14:37:37104 days 3 hrs ago0x8d4d2557ce99f83f658adf61eef3e61e04c2ac2cOUT0x9546eaa9380a224a56d7067d712296e9d40d40e10.1 BNB0.000105
0xb1571eb69c6989ec044cb59de611bdcc51afed5fbab410522e12cc0827cf2315Transfer83206682021-06-15 14:33:31104 days 3 hrs ago0x8d4d2557ce99f83f658adf61eef3e61e04c2ac2cOUT0xd7baf5b0978d757b3ebd174f30ed5cedb85b724c0.1 BNB0.000105
0x7ec4f5a2430f8049108b5b7fe209e56f302bd4aa5dcdbb999787360ab1ad5d47Transfer70789552021-05-02 18:00:29147 days 23 hrs ago0x8d4d2557ce99f83f658adf61eef3e61e04c2ac2cOUT Superalgos: SA Token0 BNB0.00019614
0x78a54ae0d95f7e6e073c5c50b57221168d427f7d527843c0227c985530f3e16fTransfer70789252021-05-02 17:58:59147 days 23 hrs ago0x8d4d2557ce99f83f658adf61eef3e61e04c2ac2cOUT Superalgos: SA Token0 BNB0.00027108
0x292bf14fa4d74911592e6e0547ba4b3afb740182604a7424f1bf40e9d93f2f50Transfer70785462021-05-02 17:40:01148 days 18 mins ago0x8d4d2557ce99f83f658adf61eef3e61e04c2ac2cOUT Superalgos: SA Token0 BNB0.00027102
[ Download CSV Export 
Parent Txn Hash Block From To Value
Loading

Contract Name:
0 BNB

Compiler Version
0

Optimization Enabled:
0 BNB

Other Settings:
-NA-
Block Transaction Gas Used Reward
Age Block Fee Address BC Fee Address Voting Power Jailed Incoming
Block Uncle Number Difficulty Gas Used Reward
Loading
Loading
Make sure to use the "Vote Down" button for any spammy posts, and the "Vote Up" for interesting conversations.